Lexington Weather

Lexington, Massachusetts, USA

34°F
10/30/2020 6:25am 
  • Lexington Conditions: Light snow, Mist, Overcast
  • Temperature: 34.3°F / 1.3°CColder 1.5°F than last hour.
  • Dew Point: 33.6°FDecreased 1.5°Fsince last hour.
  • Relative Humidity: 97
  • Wind: Wind from NNW NNW 2 mph, 10-min avg: 2 mph, gust: 6 mph
  • Barometer: 29.75 inFalling 0.03  inHg/hr Falling Slowly
  • Visibility: 5 miles
  • Rain Today: 0.09 in
  •   
Southeast Middlesex County - Winter Weather Advisory
 - SEE ALL NEARBY ALERTS -

Regional Weather Roundup
for Boston / Norton, MA

        
000
ASUS41 KBOX 271904
RWRBOX

REGIONAL WEATHER ROUNDUP
NATIONAL WEATHER SERVICE BOSTON/NORTON MA
300 PM EDT TUE OCT 27 2020

NOTE:  "FAIR" INDICATES FEW OR NO CLOUDS BELOW 12,000 FEET WITH NO 
SIGNIFICANT WEATHER AND/OR OBSTRUCTIONS TO VISIBILITY.

MAZALL-272000-
EASTERN MASSACHUSETTS
  
CITY           SKY/WX    TMP DP  RH WIND       PRES   REMARKS
BOSTON         PTSUNNY   53  37  54 NW10      30.13F                  
BEVERLY        SUNNY     53  37  54 NW8       30.12F                  
LAWRENCE       SUNNY     51  36  56 NW8       30.15F                  
BEDFORD        MOSUNNY   52  37  56 N10       30.12F                  
BLUE HILL        N/A     51  37  58 NW10      30.11F                  
NORWOOD        MOSUNNY   56  38  50 VRB7      30.13S                  
MARSHFIELD     NOT AVBL                                               
PLYMOUTH       SUNNY     57  36  45 N8        30.11F                  
TAUNTON        MOSUNNY   59  39  47 VRB3      30.12F                  
NEW BEDFORD    SUNNY     59  39  47 W10       30.11S                  
$$

MAZALL-272000-
CAPE COD AND THE ISLANDS
  
CITY           SKY/WX    TMP DP  RH WIND       PRES   REMARKS
FALMOUTH       MOSUNNY   55  45  67 NE10      30.11F                  
HYANNIS        PTSUNNY   54  45  71 N13       30.11R                  
CHATHAM          N/A     54  46  74 NW8       30.11F                  
PROVINCETOWN   CLOUDY    53  45  74 N10       30.13S                  
NANTUCKET      PTSUNNY   57  47  69 N13       30.10S                  
MARTHAS VNYRD  MOSUNNY   57  47  69 NW6       30.12R                  
$$
 
MAZALL-272000-
CENTRAL AND WESTERN MASSACHUSETTS
  
CITY           SKY/WX    TMP DP  RH WIND       PRES   REMARKS
WORCESTER      MOSUNNY   50  38  63 N8        30.13S                  
FITCHBURG      SUNNY     52  37  56 NW8       30.14F                  
ORANGE         MOSUNNY   50  38  63 W5        30.15F                  
SPRINGFIELD    PTSUNNY   53  38  56 N6        30.13F                  
WESTFIELD      PTSUNNY   54  38  54 VRB5      30.13F                  
NORTH ADAMS    PTSUNNY   50  37  61 VRB5      30.15F                  
PITTSFIELD     MOSUNNY   49  37  63 NW8       30.12F                  
$$
 
RIZALL-272000-
RHODE ISLAND
  
CITY           SKY/WX    TMP DP  RH WIND       PRES   REMARKS
PROVIDENCE     PTSUNNY   59  43  55 N8        30.12F                  
NEWPORT        SUNNY     57  43  59 N7        30.11F                  
BLOCK ISLAND   MOSUNNY   55  48  77 CALM      30.13S                  
SMITHFIELD     SUNNY     55  42  61 N12       30.12F                  
WESTERLY       CLOUDY    60  44  55 NW7       30.12F                  
$$
 
CTZALL-272000-
CONNECTICUT
  
CITY           SKY/WX    TMP DP  RH WIND       PRES   REMARKS
BRADLEY INTL   PTSUNNY   55  39  54 N5        30.14F                  
HARTFORD       MOSUNNY   57  41  55 N6        30.13F                  
BRIDGEPORT     MOSUNNY   61  40  45 NW8       30.12F                  
DANBURY        MOSUNNY   56  38  50 NE8       30.14F                  
GROTON         PTSUNNY   60  46  59 N5        30.10F                  
NEW HAVEN      MOSUNNY   62  43  49 NW3       30.12F                  
CHESTER        FAIR      59  39  47 N7        30.11F                  
MERIDEN        MOSUNNY   58  40  51 N8G16     30.12F                  
WILLIMANTIC    SUNNY     56  41  57 N7        30.12F                  
OXFORD         MOSUNNY   54  40  59 N6        30.14F                  
$$

MEZ002-015-021-024-NHZ003-005-008-011-012-014-VTZ005-008-272000-
NORTHERN NEW ENGLAND
  
CITY           SKY/WX    TMP DP  RH WIND       PRES   REMARKS
PORTLAND ME    PTSUNNY   51  34  52 NW7       30.10F                  
BANGOR ME      MOSUNNY   46  28  49 W10G21    30.10S                  
CONCORD NH     SUNNY     50  32  50 NW7       30.12F                  
MANCHESTER NH  PTSUNNY   52  31  44 W9        30.12F                  
NASHUA NH      MOSUNNY   51  36  56 N5        30.14F                  
PORTSMOUTH NH  PTSUNNY   53  31  42 W10       30.09F                  
JAFFREY NH     PTSUNNY   49  35  58 VRB5      30.13F                  
KEENE NH       MOSUNNY   50  35  56 NW7       30.14F                  
BURLINGTON VT  CLOUDY    44  24  45 N9        30.20S                  
MT. WASHINGTON FOG       18  18 100 W46         N/A  VSB 1/8 WCI  -5  
$$

NYZ052-076-272000-
EASTERN NEW YORK
  
CITY           SKY/WX    TMP DP  RH WIND       PRES   REMARKS
ALBANY         CLOUDY    47  40  76 NE7       30.16F                  
NEW YORK CITY  PTSUNNY   57  44  62 NW7       30.16S                  
$$
 
ANZALL-272000-
MARINE OBSERVATIONS
  
STATION/POSITION TIME  TEMP    WIND        PRES    VSBY  WAVE
                       AIR SEA DIR/SP/G                  HT/PER
                 (UTC) (F)     (DEG/KT/KT) (MB)    (MI)  (FT/S)
BOSTON BUOY      1850   51 56  340/  8/ 10 1019.5F         2/ 6
BUZZARDS BAY     1800          340/ 10/ 12 1021.1R
NANTUCKET SOUND  1850      60  360/ 14/ 16   N/A           2/ 3
MASS BAY-STELLWA 1804   51 56  330/ 12/ 16 1019.7F  1 7/8  2/ 6
ISLE OF SHOALS   1800   50     300/ 10/ 12 1019.6F
S OF BLOCK IS    1826      62                N/A           4/ 8
$$

......................KEY.........................
  SKY/WX - SKY CONDITION/PRESENT WEATHER
  TMP    - TEMPERATURE IN FAHRENHEIT
  DWPT   - DEWPOINT IN FAHRENHEIT
  RH     - RELATIVE HUMIDITY IN PERCENT
  WIND   - DIRECTION AND SPEED IN MPH
  PRES   - MEAN SEA LEVEL PRESSURE IN INCHES OF HG
  WCI    - WIND CHILL INDEX
  VSB    - VISIBILITY IN MILES
  HX     - HEAT INDEX
  TC     - TEMPERATURE IN CELSIUS
  VRB    - VARIABLE WIND DIRECTION
  N/A    - NOT AVAILABLE
  
      

Other recent Regional Weather Roundups

Fri Oct 30, 6:04am

Fri Oct 30, 5:04am

Fri Oct 30, 4:04am

Fri Oct 30, 3:04am

Fri Oct 30, 2:04am

Fri Oct 30, 1:04am

Fri Oct 30, 12:04am

Thu Oct 29, 11:04pm

Thu Oct 29, 10:04pm

Thu Oct 29, 9:04pm

Thu Oct 29, 8:04pm

Thu Oct 29, 7:04pm

Thu Oct 29, 6:04pm

Thu Oct 29, 5:05pm

Thu Oct 29, 4:05pm

Thu Oct 29, 3:05pm

Thu Oct 29, 2:04pm

Thu Oct 29, 1:04pm

Thu Oct 29, 12:04pm

Thu Oct 29, 11:04am

Thu Oct 29, 10:04am

Thu Oct 29, 9:04am

Thu Oct 29, 8:04am

Thu Oct 29, 7:04am

Thu Oct 29, 6:04am

Thu Oct 29, 5:04am

Thu Oct 29, 4:04am

Thu Oct 29, 3:04am

Thu Oct 29, 2:04am

Thu Oct 29, 1:05am

Thu Oct 29, 12:04am

Wed Oct 28, 11:05pm

Wed Oct 28, 10:04pm

Wed Oct 28, 9:04pm

Wed Oct 28, 8:04pm

Wed Oct 28, 7:05pm

Wed Oct 28, 6:04pm

Wed Oct 28, 5:05pm

Wed Oct 28, 4:04pm

Wed Oct 28, 3:04pm

Wed Oct 28, 2:04pm

Wed Oct 28, 1:05pm

Wed Oct 28, 12:05pm

Wed Oct 28, 11:05am

Wed Oct 28, 10:04am

Wed Oct 28, 9:04am

Wed Oct 28, 8:04am

Wed Oct 28, 7:04am

Wed Oct 28, 6:04am

Wed Oct 28, 5:05am

Wed Oct 28, 4:04am

Wed Oct 28, 3:04am

Wed Oct 28, 2:04am

Wed Oct 28, 1:05am

Wed Oct 28, 12:04am

Tue Oct 27, 11:04pm

Tue Oct 27, 10:04pm

Tue Oct 27, 9:05pm

Tue Oct 27, 8:04pm

Tue Oct 27, 7:04pm

Tue Oct 27, 6:04pm

Tue Oct 27, 5:04pm

Tue Oct 27, 4:05pm

Tue Oct 27, 2:04pm

Tue Oct 27, 1:04pm

Tue Oct 27, 12:04pm

Tue Oct 27, 11:04am

Tue Oct 27, 10:04am

Tue Oct 27, 9:04am

Tue Oct 27, 8:04am

Tue Oct 27, 7:04am

Tue Oct 27, 6:04am

Tue Oct 27, 5:04am

Tue Oct 27, 4:04am

Tue Oct 27, 3:04am

Tue Oct 27, 2:05am

Tue Oct 27, 1:04am

Tue Oct 27, 12:04am

Mon Oct 26, 11:05pm

Mon Oct 26, 10:04pm

Mon Oct 26, 9:04pm

Mon Oct 26, 8:04pm

Mon Oct 26, 7:04pm

Mon Oct 26, 6:04pm

Mon Oct 26, 5:04pm

Mon Oct 26, 4:05pm

Mon Oct 26, 2:04pm

Mon Oct 26, 1:04pm

Mon Oct 26, 12:04pm

Mon Oct 26, 11:05am

Mon Oct 26, 10:04am

Mon Oct 26, 9:04am

Mon Oct 26, 8:04am

Mon Oct 26, 7:04am

Mon Oct 26, 6:04am

Mon Oct 26, 5:04am

Mon Oct 26, 4:04am

Mon Oct 26, 3:04am

Mon Oct 26, 2:04am

Mon Oct 26, 1:04am

Mon Oct 26, 12:04am

Sun Oct 25, 11:05pm

Sun Oct 25, 10:04pm

Sun Oct 25, 9:04pm

Sun Oct 25, 8:04pm

Sun Oct 25, 7:04pm

Sun Oct 25, 6:04pm

Sun Oct 25, 5:04pm

Sun Oct 25, 4:05pm

Sun Oct 25, 3:04pm

Sun Oct 25, 2:04pm

Sun Oct 25, 1:04pm

Sun Oct 25, 12:04pm

Sun Oct 25, 11:04am

Sun Oct 25, 10:04am

Sun Oct 25, 9:04am

Sun Oct 25, 8:04am

Sun Oct 25, 7:04am

Sun Oct 25, 6:04am

Sun Oct 25, 5:04am

Sun Oct 25, 4:04am

Sun Oct 25, 3:04am

Sun Oct 25, 2:04am

Sun Oct 25, 1:05am

Sun Oct 25, 12:04am

Sat Oct 24, 11:04pm

Sat Oct 24, 10:04pm

Sat Oct 24, 9:04pm

Sat Oct 24, 8:04pm

Sat Oct 24, 7:04pm

Sat Oct 24, 6:04pm

Sat Oct 24, 5:05pm

Sat Oct 24, 4:04pm

Sat Oct 24, 3:04pm

Sat Oct 24, 2:04pm

Sat Oct 24, 1:05pm

Sat Oct 24, 12:04pm

Sat Oct 24, 11:05am

Sat Oct 24, 10:05am

Sat Oct 24, 9:04am

Sat Oct 24, 8:04am

Sat Oct 24, 7:04am

Sat Oct 24, 6:04am

Sat Oct 24, 5:04am

Sat Oct 24, 4:04am

Sat Oct 24, 3:04am

Sat Oct 24, 2:04am

Sat Oct 24, 1:05am

Sat Oct 24, 12:04am

Fri Oct 23, 11:04pm

Fri Oct 23, 10:04pm

Fri Oct 23, 9:04pm

Fri Oct 23, 8:05pm

Fri Oct 23, 7:04pm

Fri Oct 23, 6:04pm

Fri Oct 23, 5:05pm

Fri Oct 23, 4:04pm

Fri Oct 23, 3:04pm

Fri Oct 23, 2:05pm

Fri Oct 23, 1:04pm

Fri Oct 23, 12:04pm

Fri Oct 23, 11:04am

Fri Oct 23, 10:04am

Fri Oct 23, 9:04am

Fri Oct 23, 8:04am

Fri Oct 23, 7:04am

Meta data:

ID: cd6251ec-371f-41c0-a50f-5ba1303bb43c
Link: https://api.weather.gov/products/cd6251ec-371f-41c0-a50f-5ba1303bb43c